ONEWEB-0359 (49285 NORAD) Tracking and Keplerian Element Data

This shows tracking and keplerian element data for the satellite.

Feedback or suggestion? Click here.




ElementValue
Catalog49285
NameONEWEB-0359
Epoch Orbit355
Epoch Day339.91667824
Epoch Year2021
RAAN275.0527
Inclination87.2032
Eccentricity0.0011417
Argument of Perigee94.8537
Mean Anonmoly316.9397
Mean Motion14.88428721
Decay Rate-0.0005036
L11 49285U 21090G 21339.91667824 -.00050360 00000+0 -54745-2 0 9993
L22 49285 87.2032 275.0527 0011417 94.8537 316.9397 14.88428721 3556

Live tracking and technical data element details for ONEWEB-0359 (NORAD 49285). ONEWEB-0359 can be tracked NOW for your location showing map with azimuth and elevation plus other details from your city location.

Track the satellite on the map from your city or location and see movement details for azimuth, elevation, latitude, longitude, range, height, and movement on the map or in text.







IsCatalogInMostPopularTable: catalog: 49285, numindb: 2
Update: records affected: 1



GetName: 49285 ONEWEB-0359

Hit Count: updated at: Mon, 06 Dec 2021 15:48:10 GMT